Location: USNO
(38.9242°N, 77.0663°W)
Time: 06:28:29
(UTC-04:00)

Tiangong 1 - Pass Details

Date: 10 October 2017
Orbit: 293 x 320 km, 42.8° (Epoch: 19 October)

Event Time Altitude Azimuth Distance (km) Brightness Sun altitude
Rises 19:20:22 0° 279° (W) 2,042 6.8 -9.3°
Reaches altitude 10° 19:22:28 10° 289° (WNW) 1,207 4.9 -9.7°
Maximum altitude 19:24:58 33° 357° (N) 547 1.8 -10.2°
Enters shadow 19:26:48 15° 58° (ENE) 957 2.6 -10.5°
